Regional Weather Roundup
Issued by NWS Glasgow, MT

Home | Current Version | Previous Version | Text Only | Print | Product List | Glossary On
Versions: 1 2 3 4 5 6 7 8 9 10 11 12 13 14 15 16 17 18 19 20 21 22 23 24 25 26 27 28 29 30 31 32 33 34 35 36 37 38 39 40 41 42 43 44 45 46 47 48 49 50
000
ASUS45 KGGW 291315
RWRGGW
HOURLY WEATHER ROUNDUP FOR NORTHEAST MONTANA
NATIONAL WEATHER SERVICE GLASGOW MONTANA
600 AM MST MON DEC 29 2014

NOTE: "FAIR" INDICATES FEW OR NO CLOUDS BELOW 12,000 FEET WITH NO
SIGNIFICANT WEATHER AND/OR OBSTRUCTIONS TO VISISBILITY.

NORTHEAST MONTANA


CITY           SKY/WX    TMP DP  RH WIND       PRES   REMARKS
GLASGOW        PTCLDY    -4 -10  75 NW9       30.65R
PLENTYWOOD       N/A    N/A N/A N/A N7          N/A
WOLF POINT     PTCLDY    -8 -14  74 N3        30.69R
JORDAN           N/A      3  -1  83 N12       30.57R WCI -13
WINNETT          N/A      5   2  87 N7          N/A
SIDNEY         PTCLDY    -9 -11  92 NW8       30.68R
GLENDIVE       CLOUDY    -2  -8  78 N12       30.58R WCI -20
MALTA            N/A      1  -4  79 NE3         N/A
SCOBEY           N/A    -16 -26  61 MISG      30.56R

FORT PECK REPORTS


CITY           SKY/WX    TMP DP  RH WIND       PRES   REMARKS
FORT PECK        N/A     -3  -8  79 NW8         N/A
THE PINES        N/A     -2  -6  83 N8          N/A

SOUTHEAST MONTANA


CITY           SKY/WX    TMP DP  RH WIND       PRES   REMARKS
BILLINGS       FLURRIES   5   1  83 NE9       30.46R
MILES CITY     CLOUDY     3  -3  76 NE12      30.53R WCI -13
BAKER          CLOUDY     1  -3  83 N8        30.49R
LIVINGSTON     LGT SNOW   7   2  80 E21G30    30.31R WCI -13

CENTRAL MONTANA


CITY           SKY/WX    TMP DP  RH WIND       PRES   REMARKS
HAVRE          CLOUDY     6   0  76 NE10      30.64R WCI  -9
LEWISTOWN      LGT SNOW   3  -1  83 W7        30.45R FOG
GREAT FALLS    LGT SNOW   1  -2  85 N15       30.54R FOG     WCI -18
CUT BANK       LGT SNOW   1  -4  79 N12       30.57R WCI -16
HELENA         CLOUDY     5  -3  69 N14       30.46R HAZE    WCI -12
BUTTE          LGT SNOW   3  -3  76 W6        30.22R
BOZEMAN        CLOUDY     8   4  83 SW7       30.30R FOG

WESTERN MONTANA


CITY           SKY/WX    TMP DP  RH WIND       PRES   REMARKS
MISSOULA       MOCLDY    13   2  61 SE17      30.39R WCI  -4
KALISPELL      NOT AVBL

NORTH DAKOTA


CITY           SKY/WX    TMP DP  RH WIND       PRES   REMARKS
WILLISTON      MOCLDY   -11 -17  75 N8        30.65R
DICKINSON      MOCLDY    -7 -13  75 N5        30.51R
MINOT          CLEAR    -13 -19  75 NW9       30.62R
BISMARCK       PTCLDY    -8 -14  74 N6        30.62R

SOUTHERN SASKATCHEWAN


CITY           SKY/WX    TMP DP  RH WIND       PRES   REMARKS
REGINA         CLEAR    -22 -27  76 NW7       30.68
ESTEVAN        PTCLDY   -20 -26  76 NW10      30.65R WCI -41
SWIFT CURRENT  PTCLDY   -13 -18  77 W14       30.63R WCI -35



USA.gov is the U.S. government's official web portal to all federal, state and local government web resources and services.